AEROCUBE 5C

Last updated on Sun Dec 14 2025 00:03:49 GMT+0000 (Coordinated Universal Time)

1 40965U 15058B 25347.09145396 .00007176 00000+0 63123-3 0 9999 2 40965 64.7671 120.9855 0137769 136.0122 225.2055 14.90173589337916
UTC large
Height (km)
Speed (km/s)
/
Latitude / Longitude
Inclination (degrees)
Orbital Period (minutes)
Azimuth
Elevation
Range (km)
Doppler Factor

Next 0 passes for location: London (51.5072 / 0.1276)

Sorry there are no passes over London.